Location: Jackson Park
(37.2862°N, 79.9123°W)
Time: 10:49:36
(UTC+00:00)

Vanguard 2 - Pass Details

Date: 12 May 2026
Orbit: 553 x 2894 km, 32.9° (Epoch: 11 June)

Event Time Altitude Azimuth Distance (km) Brightness Sun altitude
Rises 14:15:40 0° 280° (W) 5,758 11.6 46.3°
Reaches altitude 10° 14:20:41 10° 271° (W) 4,333 11.1 47.3°
Maximum altitude 14:29:13 26° 220° (SW) 2,461 10.2 48.9°
Drops below altitude 10° 14:35:06 10° 166° (SSE) 2,888 10.9 50.0°
Sets 14:37:44 0° 152° (SSE) 3,565 11.3 50.5°
